Wind_Speed
26 25 26 26 27 27 28 28 28 27 27 27 27 26 25 23 24 26 27 26 25 24 24 24 23 23 23 23 22 22 21 19 18 18 17 16 15 14 13 13 12 11 10
26 27 28 28 28 29 28 28 28 28 29 28 28 28 27 26 25 26 28 28 28 27 26 26 26 25 26 25 25 24 23 22 21 20 19 18 17 16 16 15 14 13 12
28 29 29 28 29 29 29 29 28 29 29 28 29 29 29 28 27 27 28 29 29 29 28 27 27 28 28 28 27 27 25 24 24 22 21 20 19 18 18 17 16 15 14
28 29 30 30 29 28 28 29 28 29 29 29 29 28 28 27 27 27 29 30 30 30 31 30 29 30 29 29 30 29 27 26 26 25 23 22 21 21 19 19 18 18 17
30 31 31 31 31 31 30 30 29 29 29 29 28 28 27 27 27 27 29 31 32 32 32 32 31 31 31 30 31 31 30 28 28 27 26 24 23 22 21 20 20 19 19
32 32 33 33 33 33 32 32 32 30 30 29 29 28 28 29 29 28 29 30 32 33 33 33 33 32 32 32 32 32 32 30 29 29 27 26 25 23 23 22 22 21 20
33 33 33 34 34 34 33 33 32 31 31 30 30 29 29 29 30 31 30 30 31 33 35 34 34 34 34 34 34 34 33 33 30 30 29 28 26 25 24 23 23 23 22
33 34 34 34 34 34 34 34 33 33 32 33 32 31 31 31 31 31 31 31 31 33 35 35 35 35 35 35 35 35 35 34 32 31 30 29 28 26 25 24 23 23 23
34 35 35 35 35 35 35 35 35 35 34 35 34 33 32 32 32 32 32 33 33 33 34 36 37 37 37 36 36 35 35 36 34 32 31 30 29 28 26 25 24 24 24
35 36 36 36 36 36 37 37 37 36 36 36 36 35 34 33 34 33 33 34 35 34 34 35 36 37 38 37 37 36 36 36 35 34 32 31 30 28 27 26 25 25 25
36 36 36 37 37 37 37 38 38 38 37 37 37 37 36 36 36 35 34 34 36 36 35 35 36 36 38 37 37 37 37 37 36 34 33 32 30 29 27 26 25 24 24
36 36 36 36 36 36 36 36 36 37 37 37 38 39 38 38 37 37 35 35 36 37 37 36 36 36 38 38 38 38 39 39 37 36 34 33 31 30 28 26 25 24 23
36 36 36 35 35 35 35 36 36 37 37 37 38 40 40 40 40 39 37 37 37 37 38 39 37 38 39 39 39 38 39 40 39 37 36 34 32 31 29 27 26 24 23
35 35 35 35 35 35 36 36 36 37 38 38 38 39 40 40 41 41 40 40 39 39 39 40 40 39 39 40 40 40 40 40 39 39 37 35 34 32 31 29 27 25 24
34 35 35 36 36 36 36 36 37 37 38 39 39 40 41 42 42 42 42 42 41 42 41 41 42 41 41 41 41 41 41 41 40 39 38 37 35 33 32 30 28 26 25
35 36 36 36 36 36 36 36 37 37 38 39 40 40 41 43 44 44 44 43 43 43 43 42 43 43 42 42 43 43 42 42 41 40 39 38 36 35 33 31 30 28 26
35 35 35 35 35 35 36 37 37 38 38 39 41 42 43 44 44 44 45 46 46 45 45 45 45 44 45 45 45 44 43 43 43 41 40 39 38 36 34 33 32 30 28
35 35 35 35 35 36 36 37 38 39 40 41 42 43 44 45 46 46 46 47 48 48 47 46 47 46 46 46 46 46 45 44 43 43 42 41 40 38 36 35 33 31 29
36 36 35 35 35 36 37 37 38 39 40 41 42 43 44 45 47 48 48 48 49 50 50 48 48 48 48 48 47 47 47 46 46 45 44 43 41 40 38 37 35 33 31
36 36 35 35 36 36 37 37 38 38 38 39 40 41 43 45 46 48 50 50 50 51 51 50 50 49 49 49 49 49 49 48 47 47 46 45 44 43 41 39 37 35 33
37 36 36 36 36 36 36 36 36 36 36 37 38 40 42 44 45 47 49 51 52 52 52 53 52 52 52 51 51 51 50 49 49 49 48 46 45 44 43 41 39 37 35
38 37 36 36 35 35 35 35 34 34 34 35 37 39 41 43 44 46 48 50 53 54 54 54 53 54 54 53 52 52 51 51 50 49 49 49 48 46 45 44 42 40 37
39 37 36 35 35 34 34 33 33 32 32 33 35 37 39 41 43 45 48 50 52 54 56 56 55 56 57 56 55 53 52 51 50 50 51 51 50 49 47 46 45 42 40
38 37 36 35 34 33 33 32 31 30 31 31 32 34 36 39 42 45 47 50 52 54 56 57 56 57 58 58 57 55 54 53 52 52 52 52 51 50 49 48 46 44 42
37 36 35 34 33 32 32 31 30 29 29 29 30 30 33 36 39 43 46 48 50 53 56 58 57 58 59 60 59 57 56 54 53 54 53 52 52 52 51 50 48 46 44
36 35 34 34 32 32 31 30 29 28 28 28 29 30 31 34 37 40 43 46 49 51 54 57 58 58 59 60 61 60 58 56 54 54 54 53 52 53 52 52 51 49 46
Wind_Direction
278 279 283 281 282 283 280 279 281 277 276 273 272 270 268 265 257 246 241 240 239 238 235 230 227 225 223 222 221 221 220 218 216 214 212 211 210 209 207 206 206 207 209
281 283 283 283 282 283 281 280 280 276 274 273 271 269 268 265 260 250 242 239 238 237 238 234 230 228 225 224 223 222 221 221 219 218 217 217 216 215 213 212 211 213 215
283 285 286 283 283 283 281 280 280 275 272 272 270 268 265 262 257 253 245 239 237 236 236 236 233 229 227 225 225 223 222 223 222 221 219 219 219 219 218 218 217 218 220
282 284 285 284 285 284 281 279 277 274 271 270 271 269 263 260 257 253 248 241 238 237 235 235 235 232 229 227 226 224 223 223 223 222 222 222 222 221 223 223 223 225 225
283 283 284 283 283 282 280 277 275 274 270 269 269 266 262 259 256 253 249 243 239 237 235 233 234 232 230 228 227 225 223 223 223 223 224 224 223 223 225 227 228 229 230
284 284 284 283 281 280 279 277 275 272 269 267 266 262 259 256 253 253 250 245 241 238 234 233 234 232 230 229 227 225 224 224 224 223 223 224 225 225 227 229 230 231 232
286 285 283 283 281 280 278 276 273 270 267 265 263 261 258 256 254 252 249 246 243 239 235 233 233 233 231 229 226 226 225 224 223 223 223 224 226 227 228 230 231 231 231
287 286 285 283 281 279 277 274 272 269 267 264 262 260 257 255 254 251 248 246 244 240 235 233 233 232 230 228 225 224 225 223 223 223 224 225 226 227 229 230 230 229 230
290 288 286 284 281 279 277 274 272 270 268 264 262 261 257 254 253 251 247 245 242 240 237 234 232 230 229 227 225 224 223 222 223 224 225 225 226 228 229 230 230 229 230
291 288 286 284 281 278 276 274 272 270 268 264 262 260 257 255 252 249 247 245 241 238 236 234 232 230 227 225 223 223 221 222 223 225 225 226 226 227 229 228 229 230 231
292 290 288 285 282 280 277 274 271 269 266 263 260 259 257 254 252 248 246 244 240 237 234 233 230 228 224 223 223 222 221 222 222 224 225 226 226 226 226 226 228 229 230
293 291 289 286 283 280 277 274 271 268 266 262 259 257 255 253 251 248 245 242 239 236 233 232 228 224 223 222 222 221 221 221 221 222 223 225 226 225 225 225 225 226 228
295 293 290 287 284 280 277 274 271 268 265 262 259 256 254 252 250 248 244 241 239 236 233 229 226 222 221 221 221 221 220 220 221 222 222 223 223 223 223 223 224 224 225
296 294 291 288 285 282 278 274 271 268 265 262 259 255 252 251 249 247 244 241 238 236 232 229 226 223 221 221 220 221 219 220 221 221 221 221 221 222 221 221 222 222 222
299 296 293 291 287 284 280 276 272 268 265 262 260 256 253 249 248 246 243 240 237 236 233 230 227 224 223 221 221 221 220 218 219 220 220 219 219 219 220 220 221 221 221
304 301 297 293 290 286 282 278 274 270 266 263 260 257 253 249 247 245 242 239 237 234 231 229 228 226 224 222 221 220 219 217 218 218 218 218 218 219 220 219 220 220 220
306 303 299 296 292 288 284 280 277 272 268 265 261 258 254 250 247 244 240 238 235 233 230 228 227 226 225 223 221 219 218 218 218 217 218 218 217 218 219 219 219 220 220
309 305 302 298 294 290 286 282 278 275 270 266 262 258 254 250 246 243 240 237 234 232 230 226 226 225 225 223 221 220 219 218 217 217 217 218 217 218 217 218 218 219 219
311 308 305 300 296 293 289 284 281 277 273 268 263 259 254 249 246 242 239 236 234 231 228 226 225 224 225 224 222 220 219 218 217 217 217 218 218 217 216 217 218 219 219
313 310 307 303 298 295 291 287 283 280 275 269 265 260 255 250 246 242 239 236 233 230 227 225 223 222 223 224 222 221 219 218 218 218 218 219 218 217 216 217 218 219 220
316 313 309 306 302 298 293 290 286 281 276 270 265 260 255 250 246 242 238 236 232 229 227 223 222 221 220 221 222 221 219 219 218 218 218 219 218 217 217 217 218 219 220
318 315 312 309 306 302 296 292 286 281 276 271 265 260 255 250 245 241 238 235 233 230 227 224 222 221 220 220 220 220 219 219 218 218 218 218 217 217 217 218 218 219 220
319 317 315 312 309 304 300 295 290 284 279 275 268 262 256 250 245 241 238 235 232 230 228 225 222 221 219 218 219 219 219 219 219 218 218 218 218 218 218 218 219 220 221
321 319 316 315 312 308 304 299 293 287 282 277 272 265 258 252 246 241 238 235 232 230 228 225 223 221 219 218 218 219 218 218 218 218 217 218 218 218 218 218 219 220 222
324 322 320 317 315 312 309 303 297 290 284 278 273 267 262 255 248 243 239 235 232 229 227 225 222 220 219 218 217 217 217 216 217 219 219 219 218 218 219 219 219 220 221
327 326 323 321 318 315 313 308 302 295 288 281 276 270 265 259 252 245 240 235 232 229 226 225 223 221 219 219 219 218 218 218 217 217 217 218 218 218 219 220 220 221 222
Height
5856 5856 5855 5855 5855 5854 5853 5853 5852 5852 5852 5853 5853 5854 5855 5857 5858 5861 5863 5865 5868 5870 5872 5875 5877 5879 5882 5885 5888 5891 5893 5895 5897 5900 5902 5904 5906 5908 5910 5911 5913 5915 5917
5851 5850 5849 5848 5848 5847 5846 5846 5846 5846 5846 5846 5846 5847 5848 5850 5852 5853 5856 5859 5862 5864 5867 5869 5872 5875 5877 5880 5883 5886 5889 5892 5894 5897 5899 5901 5903 5906 5908 5910 5912 5914 5915
5844 5844 5842 5842 5841 5840 5840 5839 5839 5839 5839 5839 5839 5840 5841 5842 5844 5846 5849 5852 5855 5858 5861 5864 5866 5869 5872 5875 5878 5882 5885 5888 5891 5893 5896 5898 5900 5903 5905 5907 5909 5911 5913
5838 5837 5836 5835 5834 5832 5832 5832 5832 5832 5832 5832 5832 5833 5834 5836 5837 5839 5841 5844 5847 5851 5854 5857 5860 5863 5866 5869 5873 5876 5879 5883 5886 5889 5892 5894 5897 5899 5902 5904 5906 5909 5911
5831 5830 5829 5828 5827 5826 5825 5825 5825 5825 5825 5825 5825 5826 5827 5828 5830 5832 5834 5837 5840 5843 5846 5850 5853 5856 5859 5863 5866 5870 5874 5877 5881 5884 5888 5890 5893 5895 5898 5901 5903 5905 5908
5823 5822 5821 5820 5819 5818 5817 5817 5817 5817 5817 5817 5818 5818 5820 5821 5823 5825 5827 5829 5832 5835 5838 5842 5846 5849 5853 5856 5860 5864 5868 5872 5876 5879 5883 5886 5888 5891 5894 5897 5899 5902 5904
5815 5814 5812 5811 5810 5809 5808 5808 5808 5808 5809 5809 5810 5811 5812 5813 5815 5817 5819 5821 5824 5827 5830 5834 5838 5842 5846 5849 5853 5857 5862 5866 5870 5874 5877 5881 5884 5887 5889 5892 5895 5897 5900
5806 5805 5804 5803 5801 5800 5799 5799 5799 5799 5800 5800 5801 5802 5804 5806 5807 5809 5811 5813 5816 5819 5822 5826 5830 5834 5838 5842 5846 5851 5855 5860 5864 5868 5872 5875 5879 5882 5885 5887 5890 5893 5895
5797 5796 5794 5793 5792 5790 5790 5789 5789 5789 5790 5791 5791 5793 5794 5797 5799 5801 5803 5805 5808 5811 5814 5817 5821 5826 5830 5835 5839 5843 5848 5853 5858 5862 5865 5869 5873 5876 5879 5882 5885 5888 5891
5788 5786 5784 5783 5782 5780 5779 5779 5779 5779 5780 5781 5782 5783 5785 5787 5789 5792 5794 5796 5799 5802 5806 5809 5813 5817 5822 5826 5831 5836 5841 5846 5851 5855 5860 5864 5867 5871 5874 5877 5880 5883 5886
5779 5777 5775 5773 5771 5770 5769 5768 5768 5768 5769 5771 5771 5773 5774 5776 5779 5782 5785 5787 5790 5793 5797 5800 5804 5809 5813 5818 5824 5829 5834 5839 5844 5849 5853 5857 5861 5865 5869 5872 5875 5878 5881
5770 5767 5764 5762 5760 5759 5758 5757 5757 5757 5758 5759 5761 5762 5764 5766 5768 5772 5775 5778 5781 5784 5788 5792 5796 5801 5805 5810 5816 5821 5826 5832 5837 5842 5847 5851 5855 5859 5863 5867 5870 5873 5876
5760 5757 5754 5752 5750 5748 5747 5746 5746 5746 5746 5748 5749 5751 5753 5755 5758 5761 5764 5768 5771 5775 5779 5783 5788 5792 5797 5802 5808 5813 5819 5824 5830 5835 5840 5845 5849 5854 5857 5861 5865 5868 5871
5750 5747 5744 5741 5739 5737 5736 5735 5735 5734 5735 5736 5737 5739 5741 5744 5746 5749 5753 5757 5761 5765 5770 5774 5779 5783 5789 5794 5799 5805 5810 5816 5822 5827 5832 5838 5843 5847 5852 5856 5860 5863 5866
5740 5737 5733 5731 5728 5726 5724 5723 5723 5723 5723 5724 5725 5727 5729 5732 5734 5738 5742 5746 5751 5755 5760 5765 5769 5775 5780 5785 5791 5797 5803 5808 5814 5819 5825 5831 5836 5841 5846 5850 5854 5858 5862
5730 5726 5722 5719 5716 5714 5713 5711 5711 5710 5711 5711 5712 5715 5717 5719 5722 5726 5730 5734 5739 5744 5750 5755 5759 5765 5770 5777 5783 5789 5794 5800 5806 5812 5818 5823 5829 5834 5839 5844 5848 5852 5856
5719 5715 5711 5708 5705 5702 5700 5699 5698 5698 5698 5698 5699 5701 5704 5706 5709 5713 5717 5722 5727 5732 5739 5744 5749 5755 5761 5767 5773 5779 5786 5792 5798 5804 5810 5816 5822 5827 5832 5837 5842 5847 5851
5710 5705 5701 5697 5694 5691 5688 5686 5685 5684 5684 5685 5685 5687 5689 5692 5696 5699 5704 5708 5714 5720 5727 5733 5738 5744 5751 5757 5764 5770 5777 5783 5789 5796 5802 5808 5814 5820 5825 5831 5836 5841 5845
5700 5695 5690 5686 5682 5679 5676 5674 5672 5671 5670 5670 5670 5672 5674 5677 5681 5685 5690 5695 5701 5707 5714 5721 5727 5734 5740 5747 5753 5760 5767 5774 5780 5787 5793 5800 5806 5812 5818 5824 5829 5834 5839
5690 5685 5680 5675 5671 5667 5664 5661 5658 5656 5655 5655 5656 5657 5659 5662 5666 5670 5675 5681 5687 5694 5701 5708 5715 5722 5729 5736 5743 5750 5757 5764 5771 5778 5784 5791 5798 5804 5811 5817 5823 5828 5833
5680 5675 5669 5664 5660 5655 5651 5648 5645 5643 5641 5641 5641 5642 5644 5646 5650 5655 5660 5667 5673 5680 5687 5695 5703 5711 5718 5725 5732 5739 5746 5753 5761 5768 5775 5782 5789 5796 5803 5809 5815 5821 5826
5671 5665 5659 5654 5648 5644 5639 5636 5632 5630 5628 5628 5627 5628 5629 5632 5635 5640 5645 5652 5658 5666 5674 5682 5690 5698 5706 5714 5721 5728 5736 5743 5751 5759 5766 5773 5780 5787 5795 5801 5808 5814 5820
5661 5655 5649 5643 5638 5632 5628 5624 5620 5618 5616 5615 5614 5614 5616 5618 5621 5626 5631 5637 5644 5651 5660 5668 5677 5685 5694 5702 5710 5718 5726 5733 5741 5749 5756 5763 5771 5779 5786 5793 5799 5806 5812
5652 5645 5639 5633 5628 5622 5617 5613 5609 5607 5605 5603 5602 5601 5602 5604 5607 5611 5616 5623 5629 5637 5646 5655 5664 5672 5680 5688 5698 5706 5714 5722 5730 5737 5745 5753 5761 5769 5777 5784 5791 5798 5804
5644 5637 5630 5624 5619 5613 5608 5603 5599 5596 5594 5592 5590 5590 5590 5591 5594 5598 5603 5609 5615 5623 5630 5639 5648 5657 5667 5676 5685 5694 5702 5710 5718 5726 5735 5743 5751 5759 5767 5775 5782 5789 5796
5636 5629 5623 5616 5610 5605 5599 5594 5589 5586 5583 5581 5580 5579 5579 5579 5581 5584 5589 5595 5602 5609 5617 5625 5635 5644 5654 5663 5672 5682 5690 5699 5707 5716 5724 5733 5741 5749 5757 5765 5773 5780 5787